Location: Amon Carter Post Office
(32.8281°N, 97.0484°W)
Time: 12:31:14
(UTC+00:00)

Sich 1 - Pass Details

Date: 14 July 2022
Orbit: 593 x 622 km, 82.5° (Epoch: 12 August)

Event Time Altitude Azimuth Distance (km) Brightness Sun altitude
Exits shadow 09:46:42 12° 295° (WNW) 1,816 5.2 -18.7°
Drops below altitude 10° 09:47:46 10° 309° (NW) 1,931 5.5 -18.6°
Sets 09:51:21 0° 341° (NNW) 2,835 6.8 -18.0°
